Location: Cabeza de los Veneras
(40.2000°N, 5.2000°W)
Time: 01:55:37
(UTC+00:00)

Okean-O - Pass Details

Date: 18 April 2024
Orbit: 633 x 635 km, 98.0° (Epoch: 25 May)

Event Time Altitude Azimuth Distance (km) Brightness Sun altitude
Exits shadow 20:49:18 35° 163° (SSE) 1,020 3.2 -19.2°
Maximum altitude 20:51:07 86° 75° (ENE) 643 2.5 -19.5°
Drops below altitude 10° 20:55:33 10° 348° (NNW) 2,029 5.8 -20.2°
Sets 20:57:45 0° 348° (NNW) 2,942 6.8 -20.5°
